�ϑ��N����,2020/09/28,,,
�ϑ���,���c����,,,
�ϑ��n�_,29,,,
���x�v�ԍ�,A032,,,
,,,,
����,�C��,����,����,���l
9:30:00,-999,-999,-999,
9:31:00,-999,-999,-999,
9:32:00,-999,-999,-999,
9:33:00,27.7,-999,-999,
9:34:00,27.0,5,-999,���悯��������Ƃł��Ă��Ȃ�����
9:35:00,27.2,0,0,���悯��������Ƃł��Ă��Ȃ�����
9:36:00,31.7,3,-999,���悯��������Ƃł��Ă��Ȃ�����
9:37:00,30.0,0,0,���悯��������Ƃł��Ă��Ȃ�����
9:38:00,30.1,4,-999,���悯��������Ƃł��Ă��Ȃ�����
9:39:00,30.9,5,-999,���悯��������Ƃł��Ă��Ȃ�����
9:40:00,28.8,4,-999,
9:41:00,28.9,0,0,
9:42:00,28.2,4,-999,
9:43:00,28.0,4,-999,
9:44:00,27.9,4,-999,
9:45:00,27.9,3,-999,
9:46:00,27.6,1,-999,
9:47:00,28.1,1,-999,
9:48:00,30.0,0,0,
9:49:00,28.8,0,0,
9:50:00,29.6,0,0,
9:51:00,29.3,0,0,
9:52:00,28.2,0,0,
9:53:00,28.4,3,-999,
9:54:00,28.6,4,-999,
9:55:00,28.1,1,-999,
9:56:00,28.0,0,0,
9:57:00,27.0,0,0,
9:58:00,28.1,0,0,
9:59:00,28.2,1,-999,
10:00:00,29.2,3,-999,
10:01:00,31.2,3,-999,
10:02:00,31.1,2,-999,
10:03:00,30.9,3,-999,
10:04:00,30.7,0,0,
10:05:00,29.4,0,0,���������Ȃ���
10:06:00,29.6,1,-999,
10:07:00,30.6,3,-999,
10:08:00,31.0,2,-999,
10:09:00,30.5,0,0,
10:10:00,32.0,0,0,
10:11:00,30.1,0,0,
10:12:00,30.3,1,-999,���������Ȃ���
10:13:00,30.5,4,-999,
10:14:00,30.0,0,0,���������Ȃ���
10:15:00,30.7,0,0,
10:16:00,30.4,7,-999,
10:17:00,29.5,0,0,
10:18:00,30.0,1,-999,
10:19:00,30.2,0,0,
10:20:00,30.9,4,-999,
10:21:00,30.4,4,-999,
10:22:00,30.1,8,-999,���z���B�ꂽ
10:23:00,29.9,7,-999,
10:24:00,30.0,0,0,
10:25:00,30.8,3,-999,
10:26:00,31.2,4,-999,
10:27:00,31.0,3,-999,�����ア
10:28:00,31.8,0,0,
10:29:00,32.2,0,0,
10:30:00,32.1,1,-999,
10:31:00,31.9,5,-999,
10:32:00,32.1,1,-999,
10:33:00,32.7,-999,0,���z���łĂ����@�����ォ����
10:34:00,33.0,4,-999,���z���B�ꂽ
10:35:00,33.0,0,0,���z���o�Ă���
10:36:00,33.2,3,-999,
10:37:00,32.9,7,-999,
10:38:00,32.0,-999,0,�����ォ����
10:39:00,31.0,1,-999,���z���B�ꂽ
10:40:00,29.9,4,-999,
10:41:00,29.0,3,-999,
10:42:00,28.1,0,0,
10:43:00,28.0,1,-999,
10:44:00,27.8,1,-999,���z���o�Ă����i��u�j
10:45:00,27.8,4,-999,
10:46:00,27.9,3,-999,�����ォ����
10:47:00,28.2,5,-999,
10:48:00,28.1,0,0,
10:49:00,28.0,1,-999,
10:50:00,28.1,1,-999,
10:51:00,28.2,8,-999,
10:52:00,28.5,8,-999,
10:53:00,28.8,0,0,
10:54:00,28.8,2,-999,
10:55:00,28.9,3,-999,�����ォ����
10:56:00,28.8,0,0,
10:57:00,28.7,0,0,���z���o�Ă���
10:58:00,29,7,-999,
10:59:00,29.2,0,0,�����ォ����
11:00:00,29.4,1,-999,
11:01:00,29.8,6,-999,
11:02:00,29.6,6,-999,
11:03:00,29.5,3,-999,
11:04:00,29.1,3,-999,
11:05:00,29.0,2,-999,���z���o�Ă���
11:06:00,29.5,0,0,
11:07:00,30.0,3,-999,
11:08:00,30.5,3,-999,
11:09:00,30.6,5,-999,
11:10:00,31.0,4,-999,
11:11:00,31.4,5,-999,
11:12:00,31.8,1,-999,�߂��ɎԂ��ʂ����e���H
11:13:00,31.9,1,-999,
11:14:00,32.0,1,-999,
11:15:00,31.7,2,-999,���z���o�Ă���
11:16:00,31.1,0,0,
11:17:00,31.0,1,-999,
11:18:00,30.5,2,-999,
11:19:00,30.1,0,0,
11:20:00,30.2,3,-999,���z���o�Ă���
11:21:00,30.3,5,-999,
11:22:00,30.7,4,-999,�����ア
11:23:00,31.1,1,-999,
11:24:00,31.2,3,-999,
11:25:00,31.3,5,-999,
11:26:00,30.8,5,-999,���z���B�ꂽ
11:27:00,30.1,7,-999,���z���o�Ă���
11:28:00,30.2,0,0,
11:29:00,30.3,6,-999,
11:30:00,30.1,0,0,
